User: anonymous
Location: Caltech
(34.1382°N, 118.1253°W)
Time: 06:05:48
(UTC-07:00)
Language:

Cosmos 676 Rocket - Orbit

View from above orbital plane
View from above orbital plane
View from above satellite
View from above satellite

Ground track
Ground track

The orbit data is extracted from the following two-line orbital elements,

1 07434U 74071B   14237.67517096  .00000113  00000-0  47541-4 0  2897
2 07434 074.0477 298.7686 0019596 102.5124 054.1112 14.36271552 89311
Epoch (UTC): 25 August 2014 16:12:14
Eccentricity: 0.0019596
inclination: 74.0477°
perigee height: 757 km
apogee height: 785 km
right ascension of ascending node: 298.7686°
argument of perigee: 102.5124°
revolutions per day: 14.36271552
mean anomaly at epoch: 54.1112°
orbit number at epoch: 8931

The dashed part of the orbit path shows where the satellite is in the earth's shadow,  

DLR